Regional Weather Roundup
Issued by NWS Binghamton, NY

Home | Current Version | Previous Version | Text Only | Print | Product List | Glossary On
Versions: 1 2 3 4 5 6 7 8 9 10 11 12 13 14 15 16 17 18 19 20 21 22 23 24 25 26 27 28 29 30 31 32 33 34 35 36 37 38 39 40 41 42 43 44 45 46 47 48 49 50
000
ASUS41 KBGM 050010
RWRBGM
RWRBGM
BINGHAMTON REGIONAL WEATHER ROUNDUP
NATIONAL WEATHER SERVICE BINGHAMTON NY
800 PM EDT FRI SEP 04 2015

Note: "fair" indicates few or no clouds below 12,000 feet with no
significant weather and/or obstructions to visibility.

* = Station(s) that does not report precipitation, such as rain,
snow, etc, also no thunder or fog.

!NYZ009-015>018-022>025-036-037-044>046-055>057-062-050100
...CENTRAL NEW YORK...

CITY           SKY/WX    TMP DP  RH WIND       PRES   REMARKS
BINGHAMTON     FAIR      73  66  78 SE8       30.16R
CORTLAND       FAIR      77  64  65 CALM      30.15R
DANSVILLE      FAIR      79  67  66 S3        30.11R
ELMIRA         FAIR      79  69  71 E8        30.10R
ITHACA         FAIR      72  68  87 CALM      30.14R
HORNELL        RAIN      75  66  73 E6          N/A
MONTICELLO     FAIR      70  66  88 E5        30.21R
NORWICH        CLOUDY    75  66  73 S6        30.17R
ONEONTA        PTCLDY    70  63  78 CALM      30.21R
PENN YAN       FAIR      75  66  73 VRB3      30.14R
ROME           FAIR      76  63  64 E7        30.14R
SIDNEY         MOCLDY    75  70  83 CALM      30.17R
SYRACUSE       MOCLDY    77  63  61 NE5       30.11R
$$

!PAZ038>040-043-044-047-048-072-050100
...NORTHEAST PENNSYLVANIA...

CITY           SKY/WX    TMP DP  RH WIND       PRES   REMARKS
HAZLETON       FAIR      73  68  83 E6        30.19S
SCRANTON       FAIR      77  67  71 VRB6      30.14R
TOWANDA*       CLEAR     75  70  83 MISG      30.13R
$$
&&
KEY
WCI = WIND CHILL INDEX
VSB = VISIBILITY
HX  = HEAT INDEX
$$


USA.gov is the U.S. government's official web portal to all federal, state and local government web resources and services.